Total_Precipitation_Accumulation
0.27 0.30 0.33 0.31 0.36 0.42 0.53 0.69 0.99 1.00 0.79 0.64 0.59 0.55 0.53 0.49 0.46 0.44 0.34 0.26 0.17 0.14 0.15 0.13 0.12 0.15 0.20 0.29 0.41 0.54 0.64 0.73 0.79 0.88 1.06 1.23 1.35 1.40
0.30 0.36 0.42 0.46 0.50 0.54 0.59 0.63 0.78 0.98 0.91 0.69 0.72 0.76 0.70 0.57 0.44 0.30 0.19 0.20 0.16 0.13 0.14 0.13 0.12 0.14 0.16 0.19 0.25 0.31 0.39 0.53 0.66 0.78 0.88 0.97 1.04 1.15
0.24 0.33 0.38 0.42 0.52 0.60 0.67 0.80 0.92 1.00 0.97 0.64 0.53 0.45 0.34 0.25 0.16 0.13 0.09 0.06 0.05 0.06 0.08 0.10 0.13 0.15 0.15 0.15 0.18 0.21 0.29 0.39 0.47 0.57 0.72 0.89 1.09 1.18
0.11 0.20 0.27 0.34 0.43 0.48 0.53 0.54 0.54 0.53 0.58 0.39 0.23 0.22 0.17 0.15 0.12 0.13 0.12 0.13 0.14 0.12 0.13 0.12 0.14 0.18 0.22 0.23 0.23 0.25 0.25 0.28 0.36 0.50 0.59 0.66 0.74 0.87
0.12 0.18 0.19 0.23 0.29 0.28 0.28 0.29 0.31 0.36 0.39 0.45 0.25 0.16 0.11 0.12 0.16 0.20 0.20 0.19 0.18 0.22 0.27 0.26 0.28 0.32 0.36 0.37 0.37 0.43 0.51 0.54 0.54 0.51 0.56 0.66 0.78 0.89
0.10 0.13 0.18 0.23 0.24 0.21 0.20 0.24 0.28 0.36 0.37 0.35 0.40 0.29 0.22 0.19 0.26 0.28 0.25 0.26 0.29 0.30 0.33 0.32 0.31 0.31 0.32 0.37 0.43 0.45 0.46 0.48 0.54 0.62 0.70 0.71 0.72 0.77
0.22 0.26 0.27 0.26 0.22 0.20 0.21 0.21 0.34 0.41 0.55 0.74 0.66 0.60 0.56 0.44 0.39 0.40 0.46 0.38 0.32 0.25 0.21 0.22 0.27 0.32 0.33 0.35 0.40 0.37 0.41 0.51 0.60 0.65 0.68 0.78 0.85 0.92
0.34 0.31 0.29 0.25 0.18 0.16 0.16 0.20 0.34 0.65 0.85 0.93 0.94 0.72 0.45 0.41 0.38 0.45 0.59 0.71 0.63 0.29 0.28 0.36 0.40 0.47 0.46 0.46 0.45 0.43 0.44 0.46 0.50 0.56 0.66 0.70 0.71 0.77
0.33 0.23 0.14 0.08 0.06 0.05 0.09 0.16 0.33 0.61 0.70 0.59 0.51 0.43 0.40 0.36 0.53 0.66 0.66 0.76 0.64 0.34 0.40 0.48 0.38 0.40 0.41 0.46 0.54 0.47 0.48 0.48 0.49 0.52 0.56 0.59 0.60 0.66
0.05 0.02 0.02 0.02 0.04 0.06 0.14 0.39 0.35 0.21 0.20 0.26 0.33 0.36 0.46 0.57 0.82 1.12 1.09 0.99 0.69 0.45 0.42 0.56 0.31 0.35 0.37 0.44 0.57 0.47 0.40 0.42 0.46 0.49 0.50 0.53 0.58 0.64
0.01 0.01 0.05 0.03 0.03 0.13 0.37 0.41 0.19 0.13 0.19 0.27 0.39 0.45 0.43 0.38 0.41 0.77 0.90 0.83 0.72 0.39 0.31 0.43 0.36 0.37 0.41 0.39 0.45 0.46 0.42 0.45 0.51 0.53 0.53 0.59 0.63 0.65
0.02 0.02 0.03 0.04 0.10 0.37 0.27 0.24 0.26 0.17 0.33 0.34 0.35 0.39 0.39 0.38 0.44 0.50 0.95 1.63 1.14 0.90 0.38 0.84 0.65 0.55 0.90 0.38 0.39 0.53 0.49 0.43 0.42 0.41 0.40 0.41 0.47 0.49
0.11 0.03 0.03 0.14 0.35 0.21 0.16 0.19 0.22 0.27 0.33 0.30 0.32 0.37 0.39 0.40 0.45 0.61 0.98 1.82 2.07 1.47 0.56 1.44 1.48 0.64 1.03 0.58 0.41 0.50 0.42 0.45 0.47 0.45 0.41 0.39 0.37 0.40
0.05 0.02 0.09 0.23 0.09 0.05 0.09 0.18 0.32 0.31 0.24 0.33 0.47 0.52 0.51 0.52 0.59 0.66 0.72 0.85 1.04 1.42 0.85 1.09 1.98 0.96 1.24 0.87 0.53 0.55 0.54 0.49 0.53 0.46 0.39 0.44 0.53 0.59
0.05 0.16 0.15 0.03 0.03 0.04 0.10 0.17 0.16 0.15 0.35 0.66 0.81 0.82 0.75 0.80 0.84 0.76 0.68 0.64 0.69 0.74 0.86 0.87 1.22 1.08 1.18 1.06 0.76 0.52 0.68 0.70 0.76 0.81 0.64 0.47 0.42 0.43
0.17 0.14 0.02 0.03 0.05 0.06 0.08 0.07 0.07 0.17 0.42 0.62 0.68 0.61 0.70 0.74 0.73 0.84 1.06 0.96 1.04 0.84 0.70 0.63 0.77 0.95 0.93 0.59 0.87 0.73 0.60 1.07 1.04 1.09 1.05 0.62 0.49 0.40
0.07 0.01 0.01 0.02 0.02 0.02 0.04 0.06 0.11 0.24 0.41 0.41 0.57 0.62 0.72 0.81 0.83 0.93 1.21 1.16 1.02 0.77 0.62 0.47 0.39 0.40 0.48 0.60 0.67 0.65 0.87 0.84 1.10 1.48 1.28 0.85 0.69 0.55
0.05 0.03 0.04 0.05 0.08 0.09 0.11 0.15 0.20 0.32 0.39 0.55 0.62 0.69 0.85 0.93 1.11 1.22 1.23 1.04 0.85 0.62 0.53 0.42 0.37 0.35 0.32 0.30 0.61 0.92 0.82 0.91 1.19 1.36 1.36 0.80 0.76 0.81
0.08 0.12 0.15 0.16 0.15 0.16 0.22 0.36 0.48 0.53 0.77 0.91 0.93 0.94 1.01 1.09 1.15 1.16 0.95 0.71 0.52 0.37 0.21 0.16 0.34 0.58 0.68 0.31 0.29 0.70 1.21 1.07 0.83 0.88 0.91 0.64 0.72 0.88
0.20 0.25 0.28 0.25 0.24 0.31 0.38 0.57 0.71 0.74 0.78 0.87 1.02 1.08 1.22 1.39 1.24 1.05 0.74 0.56 0.41 0.24 0.11 0.05 0.14 0.48 1.06 0.97 0.85 0.81 0.85 1.15 0.92 0.88 0.67 0.53 0.72 0.73
0.21 0.28 0.35 0.34 0.35 0.43 0.49 0.62 0.78 1.03 1.26 1.37 1.19 1.29 1.30 1.36 0.96 0.62 0.43 0.22 0.25 0.23 0.18 0.05 0.11 0.31 0.47 0.48 0.49 0.40 0.71 0.77 0.81 1.22 0.98 0.73 0.52 0.38
0.09 0.18 0.24 0.32 0.33 0.42 0.57 0.82 1.04 1.09 1.16 1.15 1.25 1.26 1.10 0.92 0.72 0.41 0.22 0.29 0.18 0.20 0.20 0.10 0.05 0.11 0.19 0.44 0.42 0.36 0.45 0.47 0.41 0.40 0.62 0.97 1.21 1.36
0.07 0.12 0.21 0.32 0.38 0.47 0.65 0.84 1.09 1.15 1.18 1.31 1.19 0.96 0.77 0.56 0.25 0.23 0.22 0.21 0.29 0.31 0.18 0.12 0.05 0.06 0.14 0.31 0.35 0.35 0.27 0.31 0.24 0.27 0.68 0.63 0.65 0.82